Torna al catalogo

STARLINK-33584

AttivoComunicazioniVLEO
NORAD 62761·PAYLOAD·🇺🇸 United States

Lanciato Jan 21, 2025 da Vandenberg Space Force Base

Loading…

Prossimi Passaggi (prossime 24 ore)

TLE

AggiornatoSource: CelesTrak SupGP

Epoca: Sep 14, 2026, 21:28 UTC

1 62761C 25015D   26257.89493056 -.00039735  00000+0 -11733-2 0  2573
2 62761  53.1571 159.8497 0001200 100.4614 219.0150 15.34427975    14

Traccia STARLINK-33584 in tempo reale con AllMySat

Download on the App Store